Content
SEND FEEDBACK

Daily
Averages
Monthly
Summary
Australia

WAGGA, NEW SOUTH WALES


Home > Oceania > Australia > New South Wales
Elevation: 725 feet     Latitude: 35 10S     Longitude: 147 28E

WEATHER
 
SELECT A DAY
Number of Records: 169,653;   Date Range: 2/21/03 - 8/31/14
 
SHARE

PRINT THIS DATA

[ ← Previous Day ]
WEATHER ALMANAC - JANUARY 23, 2013
[ Next Day → ]
[ °C ]   °F
Weather ElementAverageHighLow
Temperature78.2 °F93.2 °F (4:00 pm)56 °F (6:00 am)
Dewpoint38.9 °F55.4 °F (10:00 am)21.2 °F (4:00 pm)
Humidity25.2 %52 % (7:00 am)4 % (3:00 pm)
Barometer29.87 in29.95 in (11:00 pm)29.79 in (6:00 pm)
Wind Speed7.3 mph17.3 mph (9:11 pm)
Wind Gust32.2 mph (9:11 pm)
Weather ElementAverage
Visibility11.2 mi
Wind DirectionSSW (187.1 °)

Weather ElementTotal
Precipitation---
Cooling Degree Days9.6 (Base 65)
Growing Degree Days24.6 (Base 50)
Averaged from 41 records on January 23, 2013
WEATHER CONDITIONS BREAKOUT
WIND DIRECTION BREAKOUT
WEATHER BY HOUR - JANUARY 23, 2013
[ °C ]   °F
Local TimeTemperatureDewpointHumidityBarometerVisibilityWind DirectionWind SpeedGust SpeedPrecipitationEventsConditions
12:00 AM75.2 °F37.4 °F25 %29.83 in6.2 miSW (230°)5.8 mph
1:00 AM69.8 °F39.2 °F33 %29.83 in6.2 miSE (140°)4.6 mph
2:00 AM69.0 °F36.0 °F18 %29.82 inEast (80°)6.9 mph
2:00 AM69.8 °F35.6 °F28 %29.83 in6.2 miEast (80°)6.9 mph
3:00 AM66.2 °F39.2 °F37 %29.83 in6.2 miENE (70°)5.8 mph
3:00 AM66.0 °F40.0 °F26 %29.82 inENE (70°)5.8 mph
4:00 AM57.2 °F37.4 °F48 %29.83 in6.2 miWSW (240°)5.8 mph
5:00 AM59.0 °F38.0 °F34 %29.84 inNE (50°)4.6 mph
5:00 AM59.0 °F39.2 °F48 %29.86 in6.2 miNE (50°)4.6 mph
6:00 AM57.2 °F37.4 °F48 %29.89 inSE (130°)4.6 mphClear
6:00 AM56.0 °F38.0 °F39 %29.86 in16.0 miSE (130°)4.6 mphPartly Cloudy
7:00 AM60.8 °F42.8 °F52 %29.92 inEast (80°)1.2 mphClear
8:00 AM68.0 °F40.0 °F24 %29.90 inEast (80°)4.6 mph
8:00 AM68.0 °F39.2 °F35 %29.92 inEast (80°)4.6 mphClear
9:00 AM75.2 °F53.6 °F47 %29.92 inENE (70°)8.1 mphClear
9:00 AM75.0 °F53.0 °F35 %29.91 in16.0 miENE (70°)8.1 mphPartly Cloudy
10:00 AM80.6 °F55.4 °F42 %29.92 inNE (50°)8.1 mphClear
11:00 AM83.0 °F50.0 °F22 %29.91 inNorth (350°)6.9 mph
11:00 AM82.4 °F50.0 °F32 %29.92 inNorth (350°)6.9 mphClear
12:00 PM86.0 °F46.0 °F15 %29.90 in16.0 miWSW (250°)5.8 mphHaze
12:08 PM87.8 °F44.6 °F22 %29.92 inWSW (250°)5.8 mphClear
12:27 PM86.0 °F46.0 °F15 %29.90 in16.0 miWSW (250°)5.8 mphHaze
1:00 PM87.8 °F39.2 °F18 %29.89 inNNW (330°)8.1 mphClear
2:00 PM90.0 °F32.0 °F6 %29.86 inNW (310°)6.9 mph
2:00 PM89.6 °F32.0 °F13 %29.89 in6.2 miNW (310°)6.9 mph
3:00 PM91.4 °F26.6 °F10 %29.86 in6.2 miWest (280°)11.5 mph
3:00 PM91.0 °F27.0 °F4 %29.84 in19.0 miWest (280°)11.5 mphPartly Cloudy
4:00 PM93.2 °F21.2 °F7 %29.83 inSW (230°)9.2 mphClear
5:00 PM93.0 °F25.0 °F4 %29.81 inWSW (250°)11.5 mph
5:00 PM93.2 °F24.8 °F9 %29.83 inWSW (250°)11.5 mphClear
6:00 PM93.2 °F26.6 °F9 %29.80 inWest (260°)6.9 mphClear
6:00 PM92.0 °F26.0 °F4 %29.79 in16.0 miWest (260°)6.9 mphHaze
7:00 PM91.4 °F30.2 °F11 %29.83 inWest (270°)5.8 mphClear
8:00 PM88.0 °F32.0 °F7 %29.82 inNNW (330°)6.9 mph
8:00 PM87.8 °F32.0 °F14 %29.83 inNNW (330°)6.9 mphClear
9:00 PM80.6 °F39.2 °F23 %29.86 inWNW (290°)5.8 mphClear
9:00 PM81.0 °F38.0 °F13 %29.83 in19.0 miWNW (290°)5.8 mphPartly Cloudy
9:11 PM82.4 °F44.6 °F26 %29.86 inENE (70°)17.3 mph32.2 mphClear
10:00 PM77.0 °F53.6 °F44 %29.89 inENE (60°)11.5 mphClear
11:00 PM74.0 °F54.0 °F38 %29.93 inENE (60°)11.5 mph
11:00 PM73.4 °F53.6 °F50 %29.95 inENE (60°)11.5 mphClear
Hourly data recorded from YSWG, located miles away from Wagga, New South Wales







STORIES FROM OUR PARTNERS